Tracking 23114 objects as of 14-May-2021
HD Live streaming from Space Station
objects crossing your sky now

YAOGAN-34

Track YAOGAN-34 now!
10-day predictions


NORAD ID: 48340
Int'l Code: 2021-037A
Perigee: 1,089.7 km
Apogee: 1,104.5 km
Inclination: 63.4 °
Period: 107.0 minutes
Semi major axis: 7468 km
RCS: Unknown
Launch date: April 30, 2021
Source: People's Republic of China (PRC)
Launch site: Jiuquan Satellite Launch Center, China (JSC)
aabbcc
Your satellite tracking list
Your tracking list is empty




NASA's NSSDC Master Catalog

Two Line Element Set (TLE):
1 48340U 21037A   21134.10868341 -.00024467  00000-0 -41377-1 0  9992
2 48340  63.4109 242.6927 0009896 323.0408  37.1125 13.45211350  1856
Source of the keplerian elements: AFSPC